Skip Page Navigation
NASA JPL Caltech
NASA Logo - Jet Propulsion Laboratory + View the NASA Portal
+ Near-Earth Object (NEO) Program
Search JPL
JPL Home Earth Solar System Stars & Galaxies Technology
JPL Solar System Dynamics
BODIES ORBITS EPHEMERIDES TOOLS PHYSICAL DATA DISCOVERY FAQ SITE MAP
JPL Small-Body Database Browser
Search: [ help ]  
23779 Cambier (1998 QL10)
Classification: Main-belt Asteroid          SPK-ID: 2023779
Ephemeris | Orbit Diagram | Orbital Elements | Physical Parameters | Discovery Circumstances | Close-Approach Data ]

[ show orbit diagram ]
Orbital Elements at Epoch 2457600.5 (2016-Jul-31.0) TDB
Reference: JPL 19 (heliocentric ecliptic J2000)
 Element Value Uncertainty (1-sigma)   Units 
e .1887703893500986 4.5901e-08  
a 2.597567626866215 1.8265e-08 au
q 2.107223774579468 1.1822e-07 au
i 3.793406670475265 7.1059e-06 deg
node 163.0456541681104 9.0775e-05 deg
peri 107.1165722121597 9.4035e-05 deg
M 135.5773238113602 2.3134e-05 deg
tp 2457024.618300314268
(2015-Jan-02.11830031)
9.612e-05 JED
period 1529.145184893317
4.19
1.6129e-05
4.416e-08
d
yr
n .2354256505899509 2.4832e-09 deg/d
Q 3.087911479152961 2.1713e-08 au
  Orbit Determination Parameters
   # obs. used (total)      805  
   data-arc span      7787 days (21.32 yr)  
   first obs. used      1994-09-05  
   last obs. used      2015-12-31  
   planetary ephem.      DE431  
   SB-pert. ephem.      SB431-BIG16  
   condition code      0  
   fit RMS      .54097  
   data source      ORB  
   producer      Otto Matic  
   solution date      2016-Feb-25 20:24:45  

Additional Information
 Earth MOID = 1.09477 au 
 Jupiter MOID = 2.02003 au 
 T_jup = 3.388 
[ show covariance matrix ]

Ephemeris | Orbit Diagram | Orbital Elements | Physical Parameters | Discovery Circumstances | Close-Approach Data ]

Physical Parameter Table
Parameter Symbol Value Units Sigma Reference Notes
absolute magnitude H 14.9 mag n/a MPO347703  

23779 Cambier           Discovered 1998 Aug. 17 by the Lincoln Laboratory Near-Earth Asteroid Research Team at Socorro.
Colleen Siobahn Cambier (b. 1993) is a finalist in the 2007 Discovery Channel Young Scientist Challenge (DCYSC), a middle school science competition, for her biochem, medicine, health, and microbiology project. She attends the St. Paul's School, Clearwater, Florida.
NOTE: some special characters may not display properly (any characters within {} are an attempt to place the proper accent above a character)
Reference: 20071026/MPCPages.arcLast Updated: 2007-10-28

[ show close-approach data ]
Alternate Designations
 1998 QL10 = 1994 RJ22 
Ephemeris | Orbit Diagram | Orbital Elements | Physical Parameters | Discovery Circumstances | Close-Approach Data ]
ABOUT SSD CREDITS/AWARDS PRIVACY/COPYRIGHT GLOSSARY LINKS
FirstGov 2016-Apr-29 14:00 UT
(server date/time)  
NASA Home Page
Site Manager:   Ryan S. Park
Webmaster  Alan B. Chamberlin